GSAT0217 (GALILEO 21) (43057 NORAD) Tracking and Keplerian Element Data

This shows tracking and keplerian element data for the satellite.

Feedback or suggestion? Click here.




ElementValue
Catalog43057
NameGSAT0217 (GALILEO 21)
Epoch Orbit784
Epoch Day77.10036882
Epoch Year2019
RAAN294.3243
Inclination56.6309
Eccentricity0.0001853
Argument of Perigee306.0084
Mean Anonmoly54.0271
Mean Motion1.70473697
Decay Rate1.4E-07
L11 43057U 17079C 19077.10036882 .00000014 00000-0 00000+0 0 9999
L22 43057 56.6309 294.3243 0001853 306.0084 54.0271 1.70473697 7847

Live tracking and technical data element details for GSAT0217 (GALILEO 21) (NORAD 43057). GSAT0217 (GALILEO 21) can be tracked NOW for your location showing map with azimuth and elevation plus other details from your city location.

Track the satellite on the map from your city or location and see movement details for azimuth, elevation, latitude, longitude, range, height, and movement on the map or in text.







IsCatalogInMostPopularTable: catalog: 43057, numindb: 210
Update: records affected: 1



GetName: 43057 GSAT0217 (GALILEO 21)

Hit Count: updated at: Wed, 20 Mar 2019 05:22:48 GMT